• Join FlightAware (Why Join?)
  • Login
  • US Flag 
05:17PM EST


 

Airport Tracker/Info


-or-


 

Live Flight TrackerFlight Track Log ✈ N9305N ✈ 28-Jan-2014 ✈ KORL - KORL

Flight Track Log - Related Links

Times and Time Zones

All times are in EST time to prevent confusion due to time zone crossing. See the N9305N flight status page for this flight to view local times or setup timezone preferences in your user account.

Time Position Orientation Groundspeed Altitude Reporting Facility
EST Latitude Longitude Course Direction KTS MPH feet Rate Location/Type
07:54AM 28.5500 -81.3333 221° Southwest 52 60 500  Level Orlando TRACON
07:55AM 28.5333 -81.3500 221° Southwest 65 75 1,300 660 Climbing Orlando TRACON
07:56AM 28.5333 -81.3667 270° West 66 76 2,000 300 Climbing Orlando TRACON
07:57AM 28.5167 -81.4000 240° Southwest 96 110 2,000  Level Orlando TRACON
07:58AM 28.5333 -81.4333 300° West 93 107 2,000  Level Orlando TRACON
07:59AM 28.5500 -81.4500 319° Northwest 91 105 2,000  Level Orlando TRACON
08:00AM 28.5667 -81.4833 300° West 91 105 2,000  Level Orlando TRACON
08:01AM 28.5833 -81.5000 319° Northwest 96 110 2,000 -60 Level Orlando TRACON
08:02AM 28.6000 -81.5167 319° Northwest 95 109 1,900 -120 Descending Orlando TRACON
08:03AM 28.6333 -81.5167 360° North 107 123 1,800 -240 Descending Orlando TRACON
08:04AM 28.6500 -81.5500 300° West 105 121 1,500 -240 Descending Orlando TRACON
08:05AM 28.6833 -81.5667 336° Northwest 112 129 1,300 240 Descending Orlando TRACON
08:06AM 28.6667 -81.5667 180° South 93 107 2,000 300 Climbing Orlando TRACON
08:07AM 28.6333 -81.5667 180° South 106 122 2,000  Level Orlando TRACON
08:08AM 28.6167 -81.5500 139° Southeast 105 121 2,000  Level Orlando TRACON
08:09AM 28.5833 -81.5500 180° South 100 115 2,000  Level Orlando TRACON
08:10AM 28.5667 -81.5500 180° South 102 117 2,000  Level Orlando TRACON
08:11AM 28.5333 -81.5333 156° South 117 135 2,000  Level Orlando TRACON
08:12AM 28.5667 -81.5000 41° Northeast 110 127 2,000  Level Orlando TRACON
08:13AM 28.5833 -81.5000 360° North 102 117 2,000  Level Orlando TRACON
08:14AM 28.6000 -81.5167 319° Northwest 95 109 2,000 -120 Level Orlando TRACON
08:15AM 28.6333 -81.5167 360° North 98 113 1,800 -300 Descending Orlando TRACON
08:16AM 28.6500 -81.5333 319° Northwest 91 105 1,400 -420 Descending Orlando TRACON
08:17AM 28.6667 -81.5500 319° Northwest 94 108 1,000 180 Descending Orlando TRACON
08:18AM 28.6833 -81.5500 360° North 95 109 1,800 480 Climbing Orlando TRACON
08:19AM 28.6833 -81.5167 90° East 114 131 2,000 60 Climbing Orlando TRACON
08:20AM 28.6833 -81.4833 90° East 104 120 2,000  Level Orlando TRACON
08:21AM 28.6667 -81.4500 120° Southeast 102 117 2,000  Level Orlando TRACON
08:22AM 28.6500 -81.4167 120° Southeast 104 120 2,000  Level Orlando TRACON
08:23AM 28.6500 -81.3833 90° East 103 119 2,000  Level Orlando TRACON
08:24AM 28.6500 -81.3500 90° East 105 121 2,000  Level Orlando TRACON
08:25AM 28.6500 -81.3167 90° East 124 143 2,000  Level Orlando TRACON
08:26AM 28.6500 -81.2667 90° East 133 153 2,000  Level Orlando TRACON
08:27AM 28.6667 -81.2333 60° Northeast 127 146 2,000 -120 Level Orlando TRACON
08:28AM 28.6667 -81.2000 90° East 128 147 1,800 -300 Descending Orlando TRACON
08:29AM 28.6500 -81.1667 120° Southeast 116 133 1,500 -180 Descending Orlando TRACON
08:30AM 28.6333 -81.1500 139° Southeast 105 121 1,500  Level Orlando TRACON
08:31AM 28.6000 -81.1667 204° Southwest 101 116 1,500  Level Orlando TRACON
08:32AM 28.6000 -81.2000 270° West 104 120 1,500 -60 Level Orlando TRACON
08:33AM 28.5833 -81.2333 240° Southwest 105 121 1,400 -240 Descending Orlando TRACON
08:34AM 28.5667 -81.2500 221° Southwest 117 135 1,100 -300 Descending Orlando TRACON
08:35AM 28.5667 -81.2833 270° West 85 98 900 -300 Descending Orlando TRACON
08:36AM 28.5500 -81.3000 221° Southwest 55 63 500 -420 Descending Orlando TRACON